Regional Weather Roundup
Issued by NWS

Home | Current Version | Previous Version | Text Only | Print | Product List | Glossary Off
Versions: 1 2 3 4 5 6 7 8 9 10 11 12 13 14 15 16 17 18 19 20 21 22 23 24 25 26 27 28 29 30 31 32 33 34 35 36 37 38 39 40 41 42 43 44 45 46 47 48 49 50

000
ASUS43 KBIS 201010
RWRND

NORTH DAKOTA REGIONAL WEATHER ROUNDUP
NATIONAL WEATHER SERVICE BISMARCK ND
500 AM CDT SUN APR 20 2014

NOTE: "FAIR" INDICATES FEW OR NO CLOUDS BELOW 12,000 FEET WITH NO
SIGNIFICANT WEATHER AND/OR OBSTRUCTIONS TO VISIBILITY.


NDZ001>003-009>011-017-201100-
NORTHWEST NORTH DAKOTA

CITY           SKY/WX    TMP DP  RH WIND       PRES   REMARKS
WILLISTON      CLEAR     30  27  88 CALM      29.88F
MINOT          CLEAR     34  30  85 S6        29.93F
MINOT AFB      CLEAR     33  33  98 SE3       29.93S
$$

NDZ018>021-031>035-040>046-201100-
SOUTHWEST NORTH DAKOTA

CITY           SKY/WX    TMP DP  RH WIND       PRES   REMARKS
BISMARCK       CLEAR     32  32 100 NE6       29.98F
DICKINSON      CLEAR     35  23  61 S8        29.89F
GARRISON         N/A     32  28  85 E3        29.94F
HETTINGER ARPT CLEAR     28  22  78 CALM      29.94F
$$

NDZ004>008-012>016-024-026-027-054-201100-
NORTHEAST NORTH DAKOTA

CITY           SKY/WX    TMP DP  RH WIND       PRES   REMARKS
GRAND FORKS    CLEAR     31  28  89 CALM      30.02R
GRND FRKS AFB  CLEAR     31  30  99 W5        30.02R
DEVILS LAKE    CLEAR     30  25  80 CALM      29.98S
$$

NDZ022-023-025-028>030-036>039-047>053-201100-
SOUTHEAST NORTH DAKOTA

CITY           SKY/WX    TMP DP  RH WIND       PRES   REMARKS
FARGO          CLEAR     34  31  88 CALM      30.02S
JAMESTOWN      CLEAR     34  33  96 S5        29.99F
$$




USA.gov is the U.S. government's official web portal to all federal, state and local government web resources and services.